Tracking 29932 objects as of 3-Dec-2024
HD Live streaming from Space Station
objects crossing your sky now

STARLINK-31216

Track STARLINK-31216 now!
10-day predictions
STARLINK-31216 is classified as:


NORAD ID: 58857
Int'l Code: 2024-019E
Perigee: 445.4 km
Apogee: 462.8 km
Inclination: 43.0 °
Period: 93.5 minutes
Semi major axis: 6825 km
RCS: Unknown
Launch date: January 29, 2024
Source: United States (US)
Launch site: AIR FORCE EASTERN TEST RANGE (AFETR)
Your satellite tracking list
Your tracking list is empty




NASA's NSSDC Master Catalog

Two Line Element Set (TLE):
1 58857U 24019E   24338.27640244  .00119013  00000-0  28972-2 0  9993
2 58857  43.0081 326.2765 0012743 148.2010 211.9618 15.39722997 48593
Source of the keplerian elements: AFSPC